Location: Moscow
(55.7500°N, 37.5830°E)
Time: 07:39:33
(UTC+03:00)

Transit 2A - Pass Details

Date: 04 December 2021
Orbit: 591 x 967 km, 66.7° (Epoch: 17 January)

Event Time Altitude Azimuth Distance (km) Brightness Sun altitude
Exits shadow 03:36:49 23° 30° (NNE) 1,904 8.3 -40.8°
Drops below altitude 10° 03:39:30 10° 46° (NE) 2,712 9.4 -40.4°
Sets 03:42:19 0° 55° (NE) 3,666 10.3 -40.0°
